Regional Weather Roundup
Issued by NWS

Home | Current Version | Previous Version | Graphics & Text | Print | Product List | Glossary On
Versions: 1 2 3 4 5 6 7 8 9 10 11 12 13 14 15 16 17 18 19 20 21 22 23 24 25 26 27 28 29 30 31 32 33 34 35 36 37 38 39 40 41 42 43 44 45 46 47 48 49 50
000
ASUS43 KDMX 160806
RWRIA

WEATHER ROUNDUP FOR IOWA
NATIONAL WEATHER SERVICE DES MOINES IA
200 AM CST TUE JAN 16 2018

NOTE: "FAIR" INDICATES FEW OR NO CLOUDS BELOW 12,000 FEET WITH NO
SIGNIFICANT WEATHER AND/OR OBSTRUCTIONS TO VISIBILITY.

* - THESE STATIONS ARE NOT NWS STATIONS...THUS NOT UNDER NWS
QUALITY CONTROL.  THEY ALSO DO NOT REPORT WEATHER SUCH
AS PRECIPITATION OR FOG.

IAZ001>003-012>014-020>022-031>034-043>046-160900-
   NORTHWEST IOWA

CITY           SKY/WX    TMP DP  RH WIND       PRES   REMARKS
CARROLL *      CLOUDY    -4 -11  71 NW18      30.63R WCI -26
CHEROKEE *     MOCLDY    -7 -13  73 NW8G16    30.67S WCI -22
DENISON *      CLOUDY    -6 -11  77 NW9       30.67S WCI -22
LE MARS *      CLOUDY    -4 -11  71 NW8G16    30.71R WCI -19
ORANGE CITY *  CLOUDY    -8 -11  84 NW9       30.66R WCI -25
SHELDON *      CLOUDY    -8 -13  77 NW14      30.64S WCI -28
SIOUX CITY     CLOUDY    -3  -9  75 NW23      30.71S WCI -27
SPENCER        CLOUDY    -8 -14  74 NW14      30.64R WCI -29
STORM LAKE *   CLOUDY    -6 -13  71 NW21      30.61S WCI -30
$$

IAZ055>058-069>071-079>083-090>094-160900-
   SOUTHWEST IOWA

CITY           SKY/WX    TMP DP  RH WIND       PRES   REMARKS
ATLANTIC *     MOCLDY    -6 -11  77 NW13G20   30.65S WCI -25
AUDUBON *      CLOUDY    -6 -11  77 NW14      30.62S WCI -26
CLARINDA *     CLOUDY    -4 -11  71 NW14      30.70S WCI -24
COUNCIL BLFS * PTCLDY    -4  -9  77 NW13G20   30.66S WCI -23
CRESTON *      MOCLDY    -6 -13  71 NW15      30.61S WCI -27
HARLAN  *      CLEAR     -6 -11  77 NW15      30.69R WCI -27
LAMONI         PTCLDY    -5 -13  68 NW14      30.61R WCI -25
RED OAK *      CLOUDY    -4 -11  71 NW12      30.69R WCI -22
SHENANDOAH *   PTCLDY    -4  -9  77 N9        30.72R WCI -20
$$

IAZ047>049-059>061-072>074-084-160900-
   CENTRAL IOWA

CITY           SKY/WX    TMP DP  RH WIND       PRES   REMARKS
AMES           CLEAR     -7 -12  79 NW15      30.60S WCI -28
ANKENY *       CLOUDY    -6 -13  71 NW13G18   30.63R WCI -25
BOONE *        CLOUDY    -8 -13  77 NW15G22   30.57S WCI -29
CHARITON *     PTCLDY    -6 -13  71 NW15      30.59F WCI -27
DES MOINES     FLURRIES  -6 -13  71 NW14      30.62R WCI -26
GRINNELL*      CLEAR     -8 -13  77 NW15      30.56S WCI -29
KNOXVILLE *    CLOUDY    -8 -17  65 NW10      30.59R WCI -26
MARSHALLTOWN   CLOUDY    -8 -13  78 NW16      30.55S WCI -30
NEWTON *       CLOUDY    -8 -13  77 NW13      30.58S WCI -28
PELLA *        CLEAR     -7 -14  71 NW10      30.62R WCI -25
PERRY *        CLOUDY    -5 -12  71 NW16      30.63R WCI -27
$$

IAZ004>006-015-016-023>025-035-036-160900-
   NORTH CENTRAL IOWA

CITY           SKY/WX    TMP DP  RH WIND       PRES   REMARKS
ALGONA *       FLURRIES  -8 N/A N/A NW17      30.57F WCI -31
CLARION *      CLOUDY    -6 -11  77 NW18      30.57S WCI -29
ESTHERVILLE    CLOUDY    -9 -14  78 NW18      30.61R WCI -33
FORT DODGE *   FLURRIES  -8 -14  74 NW8G18    30.61R WCI -24
MASON CITY     LGT SNOW  -6 -12  75 NW18      30.56R WCI -29
FOREST CITY *    N/A     -6  -9  84 NW13G22   30.56R WCI -25
WEBSTER CITY * CLOUDY    -6 -15  65 NW20      30.58R WCI -29
IOWA FALLS *   CLOUDY    -5 -11  77 NW17      30.57R WCI -27
$$

IAZ007>011-017>019-026>030-037>042-050>054-066-160900-
   NORTHEAST IOWA

CITY           SKY/WX    TMP DP  RH WIND       PRES   REMARKS
CEDAR RAPIDS   CLOUDY    -4 -10  75 NW17      30.51R WCI -26
CHARLES CITY * FLURRIES   0  -6  78 NW22      30.52R WCI -23
CLINTON *      FLURRIES   0  -5  79 W15       30.47R WCI -19
DECORAH *      CLOUDY     5   1  85 NW12G17   30.46R WCI -11
DUBUQUE        CLOUDY     4  -2  76 NW10      30.42R HAZE    WCI -11
MONTICELLO *   LGT SNOW   0  -8  71 NW12G17   30.48R WCI -18
OELWEIN *      FLURRIES  -2  -4  92 NW18      30.48S WCI -24
WATERLOO       FLURRIES  -4 -10  75 NW13      30.53S WCI -23
$$

IAZ064-065-067-068-078-160900-
   EAST CENTRAL IOWA

CITY           SKY/WX    TMP DP  RH WIND       PRES   REMARKS
DAVENPORT      FLURRIES N/A N/A N/A W17       30.50R
IOWA CITY      CLOUDY    -2 -11  65 NW12      30.56R WCI -20
MT. PLEASANT * MOCLDY    -4 -11  71 NW14G20   30.56S WCI -24
MUSCATINE *    FLURRIES   0  -8  71 NW17G23   30.56S WCI -21
QUAD CITIES    MOCLDY     0  -7  72 W16       30.50R WCI -20
$$

IAZ062-063-075>077-085>089-095>099-160900-
   SOUTHEAST IOWA

CITY           SKY/WX    TMP DP  RH WIND       PRES   REMARKS
BURLINGTON     CLOUDY    -2 -11  65 W14G22    30.54S WCI -21
FAIRFIELD *    CLOUDY    -6 -15  65 NW16      30.56F WCI -28
FORT MADISON * FLURRIES  -2  -9  71 W14       30.56R WCI -21
KEOKUK *       MOCLDY    -2 -11  65 W10       30.58R WCI -19
OSKALOOSA *      N/A     -7 -13  74 NW15G22   30.59F WCI -28
OTTUMWA        CLEAR     -6 -14  68 NW13      30.59R WCI -25
WASHINGTON *   FLURRIES  -4  -9  77 NW16      30.56F WCI -25
$$

ABBREVIATIONS USED IN REMARKS
   TC - TEMPERATURES IN CELSIUS
  WCI - WIND CHILL INDEX
   HX - HEAT INDEX
  VSB - VISIBILITY
$$





USA.gov is the U.S. government's official web portal to all federal, state and local government web resources and services.